OpenBCM V1.07b12 (Linux)

Packet Radio Mailbox

DB0FHN

[JN59NK Nuernberg]

 Login: GUEST





  
UA9FBV > KEPS     25.04.03 08:01l 108 Lines 2842 Bytes #999 (0) @ AMSAT
BID : ORB03114.M
Read: DB0FHN GUEST
Subj: Orbital Elements  03114.MISC
Path: DB0FHN<DB0ZWI<DB0HOT<OK0PKL<OK0PPL<RZ6HXA<UA9FBV
Sent: 030425/0509Z @:UA9FBV.PRM.RUS.AS #:33973 [Perm] GATEWAY $:ORB03114.M
From: UA9FBV@UA9FBV.PRM.RUS.AS
To  : KEPS@AMSAT

HR AMSAT ORBITAL ELEMENTS FOR MANNED AND MISCELLANEOUS SATELLITES
FROM WA5QGD FORT WORTH,TX April 24, 2003
SEND SUBSCRIBE/UNSUBSCRIBE TO majordomo@amsat.org ONLY
BID: ORB03114.M
TO ALL RADIO AMATEURS BT

Satellite: HUBBLE
Catalog number: 20580
Epoch time:      03114.05805698
Element set:     403
Inclination:       28.4690 deg
RA of node:       339.0335 deg
Eccentricity:    0.0004118
Arg of perigee:   226.7910 deg
Mean anomaly:     258.3401 deg
Mean motion:   14.98090009 rev/day
Decay rate:      3.141e-05 rev/day^2
Epoch rev:           51231
Checksum:              260

Satellite: UARS
Catalog number: 21701
Epoch time:      03114.14852722
Element set:     877
Inclination:       56.9794 deg
RA of node:       130.6336 deg
Eccentricity:    0.0005010
Arg of perigee:    85.7264 deg
Mean anomaly:     274.4345 deg
Mean motion:   15.02993770 rev/day
Decay rate:       3.41e-06 rev/day^2
Epoch rev:           63542
Checksum:              282

Satellite: PO-34
Catalog number: 25520
Epoch time:      03113.49851417
Element set:    0668
Inclination:      028.4618 deg
RA of node:       157.9333 deg
Eccentricity:    0.0005748
Arg of perigee:   324.2274 deg
Mean anomaly:     035.7949 deg
Mean motion:   15.14207751 rev/day
Decay rate:      2.111e-05 rev/day^2
Epoch rev:           24728
Checksum:              303

Satellite: ISS
Catalog number: 25544
Epoch time:      03114.80204861
Element set:     925
Inclination:       51.6330 deg
RA of node:       288.4378 deg
Eccentricity:    0.0006665
Arg of perigee:    52.8150 deg
Mean anomaly:     150.8331 deg
Mean motion:   15.58472350 rev/day
Decay rate:     1.1928e-04 rev/day^2
Epoch rev:           25267
Checksum:              287

Satellite: WO-39
Catalog number: 26061
Epoch time:      03113.87624683
Element set:     819
Inclination:      100.1943 deg
RA of node:       182.8410 deg
Eccentricity:    0.0035792
Arg of perigee:    98.0472 deg
Mean anomaly:     262.4772 deg
Mean motion:   14.37903339 rev/day
Decay rate:       3.73e-06 rev/day^2
Epoch rev:           16977
Checksum:              320

Satellite: OO-38
Catalog number: 26063
Epoch time:      03113.74938099
Element set:     769
Inclination:      100.2012 deg
RA of node:       179.9320 deg
Eccentricity:    0.0037610
Arg of perigee:   106.1558 deg
Mean anomaly:     254.3765 deg
Mean motion:   14.35509238 rev/day
Decay rate:       1.14e-06 rev/day^2
Epoch rev:           16959
Checksum:              305

Satellite: NO-45
Catalog number: 26932
Epoch time:      03114.22995040
Element set:     451
Inclination:       67.0534 deg
RA of node:        88.8351 deg
Eccentricity:    0.0003963
Arg of perigee:   266.6909 deg
Mean anomaly:      93.3738 deg
Mean motion:   14.29318779 rev/day
Decay rate:        4.0e-08 rev/day^2
Epoch rev:            8161
Checksum:              314



Read previous mail | Read next mail


 18.09.2025 11:36:42lGo back Go up